| time (UTC) | temp F | wind direction | speed knots | gust knots | rain 1hr in | rain 24hr in | rain mn in | humidity % | barometer mb |
| 20260503231948 | 0 | 212 | 0.0 | 0.0 | 0.00 | 0.00 | 0.00 | 1059.7 | |
| 20260503231447 | 0 | 216 | 0.0 | 0.0 | 0.00 | 0.00 | 0.00 | 1059.5 | |
| 20260503230944 | 0 | 221 | 0.0 | 0.0 | 0.00 | 0.00 | 0.00 | 1059.4 | |
| 20260503230444 | 0 | 0.0 | 0.0 | 0.00 | 0.00 | 0.00 | 1059.4 | ||
| 20260503225850 | 0 | 0.0 | 0.0 | 0.00 | 0.00 | 0.00 | 1059.3 | ||
| 20260503225619 | 0 | 0.0 | 0.0 | 0.00 | 0.00 | 0.00 | 1059.2 | ||
| 20260503224751 | 0 | 0.0 | 0.0 | 0.00 | 0.00 | 0.00 | 1059.1 | ||
| 20260503224251 | 0 | 0.0 | 0.0 | 0.00 | 0.00 | 0.00 | 1059.0 | ||
| 20260503223743 | 0 | 0.0 | 0.0 | 0.00 | 0.00 | 0.00 | 1059.0 | ||
| 20260503223156 | 0 | 0.0 | 0.0 | 0.00 | 0.00 | 0.00 | 1059.0 | ||
| 20260503222654 | 0 | 0.0 | 0.0 | 0.00 | 0.00 | 0.00 | 1058.8 | ||
| 20260503222150 | 0 | 0.0 | 0.0 | 0.00 | 0.00 | 0.00 | 1058.8 | ||
| 20260503221647 | 0 | 0.0 | 0.0 | 0.00 | 0.00 | 0.00 | 1058.7 | ||
| 20260503221057 | 0 | 0.0 | 0.0 | 0.00 | 0.00 | 0.00 | 1058.5 | ||
| 20260503220544 | 0 | 0.0 | 0.0 | 0.00 | 0.00 | 0.00 | 1058.4 | ||
| 20260503220226 | 0 | 0.0 | 0.0 | 0.00 | 0.00 | 0.00 | 1058.3 | ||
| 20260503215451 | 0 | 0.0 | 0.0 | 0.00 | 0.00 | 0.00 | 1058.3 | ||
| 20260503214952 | 0 | 0.0 | 0.0 | 0.00 | 0.00 | 0.00 | 1058.0 | ||
| 20260503214358 | 0 | 0.0 | 0.0 | 0.00 | 0.00 | 0.00 | 1058.0 | ||
| 20260503213848 | 0 | 0.0 | 0.0 | 0.00 | 0.00 | 0.00 | 1057.9 | ||
| 20260503213524 | 0 | 0.0 | 0.0 | 0.00 | 0.00 | 0.00 | 1057.8 | ||
| 20260503212750 | 0 | 0.0 | 0.0 | 0.00 | 0.00 | 0.00 | 1057.8 | ||
| 20260503212249 | 0 | 257 | 0.0 | 0.0 | 0.00 | 0.00 | 0.00 | 1057.8 | |
| 20260503211745 | 0 | 257 | 0.0 | 0.0 | 0.00 | 0.00 | 0.00 | 1057.8 | |
| 20260503211154 | 0 | 257 | 0.0 | 0.0 | 0.00 | 0.00 | 0.00 | 1057.9 | |
| 20260503210636 | 0 | 210 | 0.0 | 0.0 | 0.00 | 0.00 | 0.00 | 1057.8 | |
| 20260503210136 | 0 | 246 | 0.0 | 0.0 | 0.00 | 0.00 | 0.00 | 1057.8 | |
| 20260503205634 | 0 | 240 | 0.0 | 0.0 | 0.00 | 0.00 | 0.00 | 1057.8 | |
| 20260503205124 | 0 | 275 | 0.0 | 0.0 | 0.00 | 0.00 | 0.00 | 1057.7 | |
| 20260503204623 | 0 | 245 | 0.0 | 0.0 | 0.00 | 0.00 | 0.00 | 1057.6 | |
| 20260503203624 | 0 | 268 | 0.0 | 0.0 | 0.00 | 0.00 | 0.00 | 1057.5 | |
| 20260503203124 | 0 | 234 | 0.0 | 0.0 | 0.00 | 0.00 | 0.00 | 1057.5 | |
| 20260503202558 | 0 | 229 | 0.0 | 0.0 | 0.00 | 0.00 | 0.00 | 1057.4 | |
| 20260503202058 | 0 | 267 | 0.0 | 0.0 | 0.00 | 0.00 | 0.00 | 1057.3 | |
| 20260503201555 | 0 | 209 | 0.0 | 0.0 | 0.00 | 0.00 | 0.00 | 1057.3 | |
| 20260503201327 | 0 | 289 | 0.0 | 0.0 | 0.00 | 0.00 | 0.00 | 1057.2 | |
| 20260503200550 | 0 | 251 | 0.0 | 0.0 | 0.00 | 0.00 | 0.00 | 1057.2 | |
| 20260503200049 | 0 | 268 | 0.0 | 0.0 | 0.00 | 0.00 | 0.00 | 1057.2 | |
| 20260503195819 | 0 | 199 | 0.0 | 0.0 | 0.00 | 0.00 | 0.00 | 1057.2 | |
| 20260503195048 | 0 | 216 | 0.0 | 0.0 | 0.00 | 0.00 | 0.00 | 1057.1 | |
| 20260503194546 | 0 | 239 | 0.0 | 0.0 | 0.00 | 0.00 | 0.00 | 1057.1 | |
| 20260503194315 | 0 | 250 | 0.0 | 0.0 | 0.00 | 0.00 | 0.00 | 1057.0 | |
| 20260503193538 | 0 | 262 | 0.0 | 0.0 | 0.00 | 0.00 | 0.00 | 1057.0 | |
| 20260503193026 | 0 | 268 | 0.0 | 0.0 | 0.00 | 0.00 | 0.00 | 1057.0 | |
| 20260503192526 | 0 | 238 | 0.0 | 0.0 | 0.00 | 0.00 | 0.00 | 1056.9 | |
| 20260503192257 | 0 | 276 | 0.0 | 0.0 | 0.00 | 0.00 | 0.00 | 1056.9 | |
| 20260503191526 | 0 | 228 | 0.0 | 0.0 | 0.00 | 0.00 | 0.00 | 1056.8 | |
| 20260503191026 | 0 | 275 | 0.0 | 0.0 | 0.00 | 0.00 | 0.00 | 1056.8 | |
| 20260503190523 | 0 | 268 | 0.0 | 0.0 | 0.00 | 0.00 | 0.00 | 1056.7 | |
| 20260503190012 | 0 | 238 | 0.0 | 0.0 | 0.00 | 0.00 | 0.00 | 1056.8 | |
| 20260503185731 | 0 | 224 | 0.0 | 0.0 | 0.00 | 0.00 | 0.00 | 1056.8 | |
| 20260503185000 | 0 | 233 | 0.0 | 0.0 | 0.00 | 0.00 | 0.00 | 1056.7 | |
| 20260503184458 | 0 | 244 | 0.0 | 0.0 | 0.00 | 0.00 | 0.00 | 1056.7 | |
| 20260503183958 | 0 | 244 | 0.0 | 0.0 | 0.00 | 0.00 | 0.00 | 1056.8 | |
| 20260503183458 | 0 | 287 | 0.0 | 0.0 | 0.00 | 0.00 | 0.00 | 1056.8 | |
| 20260503182951 | 0 | 252 | 0.0 | 0.0 | 0.00 | 0.00 | 0.00 | 1056.9 | |
| 20260503182714 | 0 | 235 | 0.0 | 0.0 | 0.00 | 0.00 | 0.00 | 1056.8 | |
| 20260503181944 | 0 | 262 | 0.0 | 0.0 | 0.00 | 0.00 | 0.00 | 1056.9 | |
| 20260503181444 | 0 | 283 | 0.0 | 0.0 | 0.00 | 0.00 | 0.00 | 1056.8 | |
| 20260503180943 | 0 | 307 | 0.0 | 0.0 | 0.00 | 0.00 | 0.00 | 1056.8 | |
| 20260503180442 | 0 | 262 | 0.0 | 0.0 | 0.00 | 0.00 | 0.00 | 1056.7 | |
| 20260503175942 | 0 | 268 | 0.0 | 0.0 | 0.00 | 0.00 | 0.00 | 1056.8 | |
| 20260503175440 | 0 | 246 | 0.0 | 0.0 | 0.00 | 0.00 | 0.00 | 1056.8 | |
| 20260503174939 | 0 | 216 | 0.0 | 0.0 | 0.00 | 0.00 | 0.00 | 1056.8 | |
| 20260503174439 | 0 | 262 | 0.0 | 0.0 | 0.00 | 0.00 | 0.00 | 1056.9 | |
| 20260503173938 | 0 | 242 | 0.0 | 0.0 | 0.00 | 0.00 | 0.00 | 1056.9 | |
| 20260503173438 | 0 | 300 | 0.0 | 0.0 | 0.00 | 0.00 | 0.00 | 1056.9 | |
| 20260503172937 | 0 | 224 | 0.0 | 0.0 | 0.00 | 0.00 | 0.00 | 1056.8 | |
| 20260503172434 | 0 | 213 | 0.0 | 0.0 | 0.00 | 0.00 | 0.00 | 1056.9 | |
| 20260503171857 | 0 | 219 | 0.0 | 0.0 | 0.00 | 0.00 | 0.00 | 1056.9 | |
| 20260503171346 | 0 | 273 | 0.0 | 0.0 | 0.00 | 0.00 | 0.00 | 1056.9 | |
| 20260503170838 | 0 | 254 | 0.0 | 0.0 | 0.00 | 0.00 | 0.00 | 1056.8 | |
| 20260503170336 | 0 | 287 | 0.0 | 0.0 | 0.00 | 0.00 | 0.00 | 1056.9 | |
| 20260503150820 | 0 | 256 | 0.0 | 0.0 | 0.00 | 0.00 | 0.00 | 1057.2 | |
| 20260503150315 | 0 | 304 | 0.0 | 0.0 | 0.00 | 0.00 | 0.00 | 1057.2 | |
| 20260503140210 | 0 | 287 | 0.0 | 0.0 | 0.00 | 0.00 | 0.00 | 1057.9 | |
| 20260503131156 | 0 | 237 | 0.0 | 0.0 | 0.00 | 0.00 | 0.00 | 1058.1 | |
| 20260503130650 | 0 | 306 | 0.0 | 0.0 | 0.00 | 0.00 | 0.00 | 1058.2 | |
| 20260503130138 | 0 | 266 | 0.0 | 0.0 | 0.00 | 0.00 | 0.00 | 1058.2 | |
| 20260503110524 | 0 | 280 | 0.0 | 0.0 | 0.00 | 0.00 | 0.00 | 1058.2 | |
| 20260503090444 | 0 | 268 | 0.0 | 0.0 | 0.00 | 0.00 | 0.00 | 1057.3 | |
| 20260503081424 | 0 | 279 | 0.0 | 0.0 | 0.00 | 0.00 | 0.00 | 1056.8 | |
| 20260503080921 | 0 | 268 | 0.0 | 0.0 | 0.00 | 0.00 | 0.00 | 1056.8 | |
| 20260503080421 | 0 | 306 | 0.0 | 0.0 | 0.00 | 0.00 | 0.00 | 1056.7 | |
| 20260503072914 | 0 | 268 | 0.0 | 0.0 | 0.00 | 0.00 | 0.00 | 1056.7 | |
| 20260503072414 | 0 | 336 | 0.0 | 0.0 | 0.00 | 0.00 | 0.00 | 1056.6 | |
| 20260503072143 | 0 | 254 | 0.0 | 0.0 | 0.00 | 0.00 | 0.00 | 1056.8 | |
| 20260503071412 | 0 | 273 | 0.0 | 0.0 | 0.00 | 0.00 | 0.00 | 1056.7 | |
| 20260503070910 | 0 | 258 | 0.0 | 0.0 | 0.00 | 0.00 | 0.00 | 1056.7 | |
| 20260503070639 | 0 | 286 | 0.0 | 0.0 | 0.00 | 0.00 | 0.00 | 1056.8 | |
| 20260503054750 | 0 | 226 | 0.0 | 0.0 | 0.00 | 0.00 | 0.00 | 1056.2 | |
| 20260503054250 | 0 | 283 | 0.0 | 0.0 | 0.00 | 0.00 | 0.00 | 1055.8 | |
| 20260503053750 | 0 | 303 | 0.0 | 0.0 | 0.00 | 0.00 | 0.00 | 1056.2 | |
| 20260503053250 | 0 | 309 | 0.0 | 0.0 | 0.00 | 0.00 | 0.00 | 1056.3 | |
| 20260503053019 | 0 | 251 | 0.0 | 0.0 | 0.00 | 0.00 | 0.00 | 1056.1 | |
| 20260503052248 | 0 | 229 | 0.0 | 0.0 | 0.00 | 0.00 | 0.00 | 1056.2 | |
| 20260503051748 | 0 | 1 | 0.0 | 0.0 | 0.00 | 0.00 | 0.00 | 1056.3 | |
| 20260503051246 | 0 | 314 | 0.0 | 0.0 | 0.00 | 0.00 | 0.00 | 1056.3 | |
| 20260503050740 | 0 | 262 | 0.0 | 0.0 | 0.00 | 0.00 | 0.00 | 1056.1 | |
| 20260503050232 | 0 | 249 | 0.0 | 0.0 | 0.00 | 0.00 | 0.00 | 1056.1 | |
| 20260503045955 | 0 | 225 | 0.0 | 0.0 | 0.00 | 0.00 | 0.00 | 1056.0 | |
| 20260503045222 | 0 | 320 | 0.0 | 0.0 | 0.00 | 0.00 | 0.00 | 1055.8 | |
| 20260503044954 | 0 | 239 | 0.0 | 0.0 | 0.00 | 0.00 | 0.00 | 1056.1 | |
| 20260503044453 | 0 | 276 | 0.0 | 0.0 | 0.00 | 0.00 | 0.00 | 1056.1 | |
| 20260503043722 | 0 | 253 | 0.0 | 0.0 | 0.00 | 0.00 | 0.00 | 1056.1 | |
| 20260503043222 | 0 | 238 | 0.0 | 0.0 | 0.00 | 0.00 | 0.00 | 1056.2 | |
| 20260503042720 | 0 | 243 | 0.0 | 0.0 | 0.00 | 0.00 | 0.00 | 1056.1 | |
| 20260503042451 | 0 | 283 | 0.0 | 0.0 | 0.00 | 0.00 | 0.00 | 1056.1 | |
| 20260503041718 | 0 | 267 | 0.0 | 0.0 | 0.00 | 0.00 | 0.00 | 1056.1 | |
| 20260503041218 | 0 | 259 | 0.0 | 0.0 | 0.00 | 0.00 | 0.00 | 1056.1 | |
| 20260503040716 | 0 | 202 | 0.0 | 0.0 | 0.00 | 0.00 | 0.00 | 1056.1 | |
| 20260503040216 | 0 | 258 | 0.0 | 0.0 | 0.00 | 0.00 | 0.00 | 1056.0 | |
| 20260503035715 | 0 | 249 | 0.0 | 0.0 | 0.00 | 0.00 | 0.00 | 1056.2 | |
| 20260503035214 | 0 | 244 | 0.0 | 0.0 | 0.00 | 0.00 | 0.00 | 1056.3 | |
| 20260503034715 | 0 | 296 | 0.0 | 0.0 | 0.00 | 0.00 | 0.00 | 1056.4 | |
| 20260503034211 | 0 | 294 | 0.0 | 0.0 | 0.00 | 0.00 | 0.00 | 1056.5 | |
| 20260503033710 | 0 | 292 | 0.0 | 0.0 | 0.00 | 0.00 | 0.00 | 1056.4 | |
| 20260503033210 | 0 | 266 | 0.0 | 0.0 | 0.00 | 0.00 | 0.00 | 1056.4 | |
| 20260503032708 | 0 | 277 | 0.0 | 0.0 | 0.00 | 0.00 | 0.00 | 1056.4 | |
| 20260503032208 | 0 | 221 | 0.0 | 0.0 | 0.00 | 0.00 | 0.00 | 1056.3 | |
| 20260503031708 | 0 | 277 | 0.0 | 0.0 | 0.00 | 0.00 | 0.00 | 1056.5 | |
| 20260503031206 | 0 | 266 | 0.0 | 0.0 | 0.00 | 0.00 | 0.00 | 1056.7 | |
| 20260503030704 | 0 | 217 | 0.0 | 0.0 | 0.00 | 0.00 | 0.00 | 1056.6 | |
| 20260503030204 | 0 | 271 | 0.0 | 0.0 | 0.00 | 0.00 | 0.00 | 1056.5 | |
| 20260503025702 | 0 | 252 | 0.0 | 0.0 | 0.00 | 0.00 | 0.00 | 1056.6 | |
| 20260503025202 | 0 | 280 | 0.0 | 0.0 | 0.00 | 0.00 | 0.00 | 1056.7 | |
| 20260503024700 | 0 | 296 | 0.0 | 0.0 | 0.00 | 0.00 | 0.00 | 1056.8 | |
| 20260503024156 | 0 | 287 | 0.0 | 0.0 | 0.00 | 0.00 | 0.00 | 1056.9 | |
| 20260503023915 | 0 | 244 | 0.0 | 0.0 | 0.00 | 0.00 | 0.00 | 1056.8 | |
| 20260503023144 | 0 | 239 | 0.0 | 0.0 | 0.00 | 0.00 | 0.00 | 1056.8 | |
| 20260503022645 | 0 | 298 | 0.0 | 0.0 | 0.00 | 0.00 | 0.00 | 1056.7 | |
| 20260503022142 | 0 | 291 | 0.0 | 0.0 | 0.00 | 0.00 | 0.00 | 1056.9 | |
| 20260503021640 | 0 | 242 | 0.0 | 0.0 | 0.00 | 0.00 | 0.00 | 1056.8 | |
| 20260503021410 | 0 | 279 | 0.0 | 0.0 | 0.00 | 0.00 | 0.00 | 1056.9 | |
| 20260503020639 | 0 | 234 | 0.0 | 0.0 | 0.00 | 0.00 | 0.00 | 1056.9 | |
| 20260503020138 | 0 | 231 | 0.0 | 0.0 | 0.00 | 0.00 | 0.00 | 1057.0 | |
| 20260503015636 | 0 | 347 | 0.0 | 0.0 | 0.00 | 0.00 | 0.00 | 1056.9 | |
| 20260503015135 | 0 | 252 | 0.0 | 0.0 | 0.00 | 0.00 | 0.00 | 1056.9 | |
| 20260503014634 | 0 | 241 | 0.0 | 0.0 | 0.00 | 0.00 | 0.00 | 1057.0 | |
| 20260503014134 | 0 | 246 | 0.0 | 0.0 | 0.00 | 0.00 | 0.00 | 1056.9 | |
| 20260503013634 | 0 | 283 | 0.0 | 0.0 | 0.00 | 0.00 | 0.00 | 1056.8 | |
| 20260503013134 | 0 | 293 | 0.0 | 0.0 | 0.00 | 0.00 | 0.00 | 1057.0 | |
| 20260503012634 | 0 | 283 | 0.0 | 0.0 | 0.00 | 0.00 | 0.00 | 1056.9 | |
| 20260503012134 | 0 | 256 | 0.0 | 0.0 | 0.00 | 0.00 | 0.00 | 1056.9 | |
| 20260503011634 | 0 | 230 | 0.0 | 0.0 | 0.00 | 0.00 | 0.00 | 1057.0 | |
| 20260503011128 | 0 | 241 | 0.0 | 0.0 | 0.00 | 0.00 | 0.00 | 1056.9 | |
| 20260503010624 | 0 | 279 | 0.0 | 0.0 | 0.00 | 0.00 | 0.00 | 1057.1 | |
| 20260503010125 | 0 | 254 | 0.0 | 0.0 | 0.00 | 0.00 | 0.00 | 1057.1 | |
| 20260503005620 | 0 | 274 | 0.0 | 0.0 | 0.00 | 0.00 | 0.00 | 1057.0 | |
| 20260503005118 | 0 | 287 | 0.0 | 0.0 | 0.00 | 0.00 | 0.00 | 1057.1 | |
| 20260503004849 | 0 | 306 | 0.0 | 0.0 | 0.00 | 0.00 | 0.00 | 1056.9 | |
| 20260503004115 | 0 | 257 | 0.0 | 0.0 | 0.00 | 0.00 | 0.00 | 1057.1 | |
| 20260503003616 | 0 | 289 | 0.0 | 0.0 | 0.00 | 0.00 | 0.00 | 1057.1 | |
| 20260503003344 | 0 | 231 | 0.0 | 0.0 | 0.00 | 0.00 | 0.00 | 1057.1 | |
| 20260503002614 | 0 | 303 | 0.0 | 0.0 | 0.00 | 0.00 | 0.00 | 1057.1 | |
| 20260503002114 | 0 | 251 | 0.0 | 0.0 | 0.00 | 0.00 | 0.00 | 1057.0 | |
| 20260503001614 | 0 | 270 | 0.0 | 0.0 | 0.00 | 0.00 | 0.00 | 1057.1 | |
| 20260503001346 | 0 | 268 | 0.0 | 0.0 | 0.00 | 0.00 | 0.00 | 1057.0 | |
| 20260503000614 | 0 | 296 | 0.0 | 0.0 | 0.00 | 0.00 | 0.00 | 1056.9 | |
| 20260503000114 | 0 | 275 | 0.0 | 0.0 | 0.00 | 0.00 | 0.00 | 1056.9 | |
| 20260502235612 | 0 | 249 | 0.0 | 0.0 | 0.00 | 0.00 | 0.00 | 1056.8 | |
| 20260502235112 | 0 | 261 | 0.0 | 0.0 | 0.00 | 0.00 | 0.00 | 1056.9 | |
| 20260502234610 | 0 | 9 | 0.0 | 0.0 | 0.00 | 0.00 | 0.00 | 1056.9 | |
| 20260502234110 | 0 | 276 | 0.0 | 0.0 | 0.00 | 0.00 | 0.00 | 1057.0 | |
| 20260502233841 | 0 | 293 | 0.0 | 0.0 | 0.00 | 0.00 | 0.00 | 1057.1 | |
| 20260502233108 | 0 | 287 | 0.0 | 0.0 | 0.00 | 0.00 | 0.00 | 1057.3 | |
| 20260502232606 | 0 | 286 | 0.0 | 0.0 | 0.00 | 0.00 | 0.00 | 1057.2 |